Theta_e
335 335 334 333 333 334 334 332 331 331 331 331 331 332 332 331 331 331 331 332 334 336 338 337 336 336 334 333 333 332 331 329 326 324 321 322 327 327 325 323 322 322 324 327 327 326 326 326 325 324 322 322 322 322 321 320 318 315 315 314 312 311 310 310 310 311 311 311 310 310 310 311 314 316 317 318 318 317 318 319 320 320 320 320 318
335 335 334 334 334 334 333 332 330 330 331 331 330 330 331 331 330 330 331 331 332 334 337 337 336 335 334 333 333 332 332 330 326 323 319 318 320 321 321 323 324 325 327 328 327 327 327 325 323 320 316 317 318 318 317 316 314 314 315 314 313 314 315 317 318 319 319 319 318 316 315 314 313 312 313 316 317 317 317 319 319 320 320 320 319
335 335 335 335 334 334 333 332 332 331 331 332 332 331 332 332 332 332 331 332 332 334 337 336 335 335 334 333 333 332 332 330 327 322 317 315 316 320 323 326 327 327 327 327 326 326 326 324 321 317 316 317 317 315 314 315 317 320 321 321 321 322 323 323 324 324 324 324 324 324 323 323 321 318 314 313 313 314 315 318 319 319 320 320 319
335 335 335 335 335 334 333 333 333 333 332 333 333 333 333 334 333 333 332 332 333 336 337 335 334 334 334 333 332 333 332 331 328 322 319 319 321 325 327 328 328 326 324 324 324 323 324 324 322 320 320 321 320 318 319 322 324 325 325 325 325 325 325 325 326 325 325 325 325 325 325 325 325 324 321 317 314 313 312 315 318 319 319 319 320
336 335 335 335 335 334 334 333 334 334 333 333 334 334 334 334 334 333 332 331 333 335 335 334 333 334 333 332 332 333 332 332 329 323 321 324 326 327 327 328 326 323 324 327 328 327 327 326 325 324 323 323 323 322 324 326 326 326 326 326 326 326 327 327 327 327 327 327 326 326 326 325 325 325 324 323 321 318 314 312 315 317 318 318 319
336 335 335 335 335 335 335 334 335 334 334 334 334 335 334 334 334 333 332 331 332 333 334 334 333 333 332 332 332 333 332 332 329 324 323 326 327 327 326 326 324 324 327 329 330 329 328 327 326 324 323 324 324 324 327 328 328 327 327 327 327 327 328 328 328 328 328 328 327 326 326 326 325 325 325 325 324 323 319 314 312 315 317 317 317
336 336 335 336 335 335 335 335 335 335 335 335 334 334 334 333 334 333 333 332 332 333 333 333 333 332 332 331 332 332 332 332 330 326 325 326 327 328 325 324 325 326 328 328 328 328 327 327 326 325 325 324 325 326 327 328 327 327 327 327 328 328 328 328 328 328 328 327 327 327 327 326 326 326 325 326 325 323 322 318 313 312 316 317 316
335 336 336 336 334 334 335 335 334 335 335 335 335 334 334 334 334 334 334 333 333 333 333 333 333 332 331 331 332 332 331 331 331 328 327 326 327 328 327 326 327 328 328 328 328 328 328 328 328 328 327 327 327 327 328 327 327 327 327 328 328 329 328 328 327 327 326 325 326 326 326 326 326 326 326 325 325 324 323 321 317 313 315 316 316
334 335 336 335 334 334 336 335 335 336 336 335 335 335 335 334 334 333 333 333 332 332 333 333 332 331 330 330 331 331 331 331 331 330 329 327 327 328 328 327 328 328 328 328 328 328 328 328 329 329 329 328 328 328 328 328 328 328 329 329 329 329 328 327 326 325 324 324 325 325 326 326 325 325 326 326 325 325 324 323 321 317 315 315 316
333 334 335 336 335 335 336 336 335 336 336 336 336 335 335 335 334 333 332 332 331 332 333 333 332 331 330 331 330 331 331 331 331 331 330 329 328 328 328 328 328 328 328 328 327 328 328 328 328 328 329 329 328 329 329 329 329 329 330 330 329 328 328 325 324 324 324 324 325 324 325 325 325 325 325 326 325 325 325 324 322 319 315 314 316
332 333 334 335 336 335 336 336 336 337 336 337 336 335 334 334 333 332 332 332 332 333 333 333 332 332 331 331 330 330 331 332 331 331 331 330 330 329 329 329 328 327 327 327 327 327 327 326 326 326 328 329 329 329 330 330 330 330 329 329 329 328 326 324 323 323 322 323 323 323 324 323 324 324 325 325 325 325 325 324 323 319 314 312 314
333 333 333 334 336 336 336 336 336 336 336 336 336 334 333 333 333 332 331 331 332 333 333 333 332 331 331 330 330 330 330 331 331 330 330 330 330 329 330 330 327 326 327 327 327 327 325 323 323 325 327 328 329 329 330 330 330 329 329 328 328 327 325 323 322 321 320 319 319 319 319 319 320 321 322 325 325 325 325 324 321 315 310 310 314
333 333 333 334 335 335 335 336 336 336 336 335 335 335 334 333 333 332 331 331 332 333 333 332 331 329 330 329 329 330 330 330 330 330 330 330 330 329 330 329 327 326 327 327 328 326 323 321 322 325 327 328 329 329 329 329 329 329 328 328 327 325 323 322 319 316 314 311 310 313 317 320 321 320 321 324 325 325 324 320 315 312 312 315 319
334 334 334 335 335 333 333 335 335 335 336 336 334 334 335 334 333 332 331 330 332 333 332 331 330 329 329 329 329 330 330 330 330 330 329 329 329 328 329 329 328 327 327 328 328 325 322 322 324 326 327 328 329 329 329 329 329 328 327 326 323 321 320 318 313 310 307 305 310 318 322 324 325 323 322 323 325 324 321 318 316 317 319 321 322
334 334 334 334 334 333 333 335 334 334 336 336 334 334 334 334 333 332 331 331 332 333 332 331 329 329 329 329 330 330 330 330 329 330 329 328 329 328 329 328 328 328 327 328 327 324 324 326 326 326 328 328 328 328 328 328 327 325 323 319 316 315 315 312 307 304 302 306 316 323 324 324 325 324 324 324 324 322 321 321 321 322 322 322 322
334 334 334 334 334 333 333 334 334 334 336 336 335 335 334 333 332 332 331 331 332 332 331 331 329 328 329 329 329 329 331 330 329 329 329 329 329 328 329 328 328 328 328 328 327 324 326 328 327 327 328 328 327 327 327 327 323 319 313 309 307 308 308 305 303 303 302 309 319 323 324 326 325 325 324 323 322 322 322 323 323 323 322 322 322
334 334 336 336 335 334 334 333 333 335 336 335 335 335 334 334 332 331 332 331 331 331 332 331 329 328 328 329 329 330 331 330 329 329 329 329 329 328 329 328 328 328 328 328 327 325 326 328 328 327 327 327 327 326 324 321 316 311 306 304 304 304 304 303 304 304 303 311 320 322 324 325 325 324 323 322 323 323 323 323 321 320 319 319 320
335 335 336 337 336 334 334 333 333 335 336 335 335 334 333 333 332 332 332 331 331 331 332 332 330 329 328 328 329 329 329 329 330 330 328 328 328 328 328 328 328 328 328 328 327 326 327 328 328 327 327 326 324 321 317 314 309 305 302 303 303 303 303 302 303 302 303 313 320 322 323 324 323 324 323 323 323 323 322 321 318 315 313 313 314
335 335 336 337 336 335 334 334 334 334 335 335 335 335 334 333 333 333 332 332 331 331 332 332 330 330 330 329 329 328 327 328 329 329 329 328 328 328 328 327 327 327 327 327 326 326 327 327 327 327 326 324 321 317 313 308 304 302 302 303 304 304 305 305 307 309 310 315 320 320 321 322 323 323 323 322 322 322 320 316 311 307 304 304 304
335 334 335 336 336 336 335 334 334 334 334 335 335 335 335 334 334 334 333 332 331 331 332 332 331 330 330 330 330 329 327 327 328 328 328 329 328 328 328 327 327 327 326 327 326 326 327 327 327 326 324 322 318 313 308 304 302 302 304 306 307 309 310 311 313 315 314 314 317 319 321 322 322 322 322 322 321 318 312 306 303 301 301 300 300
334 334 335 335 335 335 335 334 333 333 334 335 335 334 335 334 334 333 333 333 332 331 332 332 331 331 331 330 329 328 327 327 327 326 327 328 329 328 328 327 327 327 327 327 326 326 326 327 327 325 323 322 318 309 304 303 303 304 306 307 309 310 310 309 308 308 307 305 308 313 317 320 321 321 320 318 313 308 303 301 300 300 299 299 299
334 334 335 335 335 334 334 334 333 333 334 334 334 335 334 334 334 333 333 333 332 332 332 332 331 331 330 330 328 328 328 327 327 326 326 326 327 328 327 327 327 327 327 326 327 326 327 327 327 325 324 324 322 312 303 304 305 305 306 305 306 306 305 304 302 302 302 301 303 305 307 310 310 310 309 306 303 301 300 300 299 299 299 299 298
334 335 335 335 335 334 334 333 332 333 335 334 334 335 334 333 333 333 333 332 332 332 332 332 332 331 330 329 329 328 328 328 327 326 326 325 326 327 327 327 327 327 327 327 327 326 327 327 326 325 324 323 325 317 304 303 305 303 303 303 302 303 302 302 301 300 300 301 303 305 304 303 302 303 303 303 302 302 301 301 299 299 298 298 298
334 335 335 335 334 334 334 333 333 333 334 335 334 334 334 333 333 333 334 333 331 331 331 331 331 331 330 330 329 328 328 328 327 326 326 326 326 326 326 327 326 326 326 326 326 326 326 326 324 324 323 321 324 319 305 303 304 302 302 302 301 302 301 301 300 300 300 300 301 302 302 301 300 302 304 305 306 307 306 305 302 301 301 300 299
334 334 335 334 333 333 333 333 333 334 334 334 333 334 333 333 332 333 333 333 332 331 331 330 330 330 330 330 330 328 328 329 328 327 326 325 325 325 325 326 324 322 322 324 325 325 325 325 324 323 320 316 317 313 303 303 304 301 302 302 301 301 300 300 300 300 300 300 300 300 300 300 299 300 301 302 303 304 304 302 301 302 303 303 302
333 334 334 333 332 333 333 333 334 334 335 334 333 333 333 333 332 333 333 333 332 332 331 330 330 330 330 330 330 330 329 329 329 327 326 326 325 325 325 325 323 320 318 319 322 322 321 323 324 320 316 313 310 305 302 304 303 301 302 302 301 301 300 300 300 300 300 300 300 300 300 300 299 299 299 299 300 300 299 299 299 300 300 301 301
332 333 333 332 332 333 333 334 334 334 334 333 333 333 333 333 333 333 333 333 332 332 331 331 331 330 330 330 330 330 330 330 329 328 327 326 326 326 325 324 322 320 318 317 317 317 319 321 321 318 314 313 309 303 302 304 302 302 302 301 301 300 300 301 300 300 301 300 300 300 300 300 300 300 300 299 300 299 299 299 299 299 299 299 299
332 332 332 332 333 333 333 333 333 333 332 332 333 333 333 333 333 333 333 333 332 331 331 331 331 330 330 330 330 331 331 330 330 329 328 327 326 326 325 323 322 322 321 320 315 312 314 317 317 316 314 313 310 304 303 304 302 303 302 301 301 301 301 301 301 301 301 301 301 300 301 301 300 300 300 300 300 300 300 299 299 299 299 299 298
332 332 332 332 333 333 333 333 332 332 332 332 333 333 333 333 333 333 333 333 332 331 331 331 330 330 330 331 331 331 331 330 329 330 329 328 326 326 325 323 322 321 322 323 317 310 310 314 314 315 314 312 310 305 303 304 303 303 303 301 301 301 302 303 303 303 302 301 301 301 301 301 300 300 300 300 300 300 300 300 299 299 299 299 299
331 332 332 332 333 333 333 333 332 332 332 333 333 333 333 333 333 333 332 332 332 331 331 331 330 330 331 331 331 331 331 330 329 330 329 328 327 326 325 323 322 320 319 321 319 311 309 313 313 313 313 311 311 306 303 304 303 303 303 301 302 302 303 305 305 305 305 304 304 303 303 302 302 302 301 301 301 301 300 300 300 300 299 299 299
332 333 332 332 332 332 332 332 331 332 333 333 333 333 333 333 333 332 332 332 332 331 331 331 331 332 331 331 331 331 331 330 329 330 329 328 327 326 325 323 321 320 317 318 317 311 309 312 312 311 311 311 310 306 304 304 303 303 303 302 302 304 305 307 307 308 308 308 307 307 307 307 306 306 306 305 305 305 304 303 302 302 301 301 300
333 333 332 332 332 332 331 331 331 332 333 333 333 333 332 332 332 332 332 332 332 331 331 332 332 332 332 332 331 331 331 330 329 330 330 328 328 327 326 324 321 320 318 317 314 309 308 312 311 310 310 310 309 306 304 304 303 303 303 302 303 305 307 308 309 309 309 310 310 310 310 310 310 310 310 310 309 309 308 307 306 305 304 303 302
333 333 333 332 331 331 330 330 331 332 332 332 332 332 332 332 332 332 331 332 331 331 331 331 332 332 333 332 331 330 330 330 329 329 330 329 328 327 326 324 323 321 318 316 312 307 308 310 310 310 310 309 308 306 304 304 304 303 303 302 303 305 307 309 309 309 309 310 310 310 310 310 310 310 310 310 310 310 309 309 309 308 308 307 306
330 331 332 331 330 330 330 330 330 330 330 329 331 331 331 331 331 331 331 331 332 332 331 332 332 332 332 331 330 330 330 330 329 329 329 329 328 328 326 325 324 321 318 316 312 308 308 309 309 309 309 309 308 307 305 305 305 304 304 303 303 305 307 309 309 309 309 309 309 309 309 309 309 309 309 309 309 309 309 309 309 309 309 309 308
328 329 331 330 330 330 329 329 329 328 329 328 329 330 330 330 330 330 331 331 332 332 331 331 332 331 331 331 331 330 330 329 329 329 328 327 328 329 327 326 326 323 322 320 314 309 308 309 309 309 309 309 309 309 307 305 305 305 304 304 303 304 307 308 309 308 308 308 308 308 308 308 308 308 308 308 309 308 309 308 308 308 308 308 308
328 329 330 329 329 329 328 328 328 327 328 328 327 328 328 328 329 329 330 330 331 331 331 331 331 330 330 331 331 331 330 329 329 329 328 327 328 329 327 327 327 325 325 322 315 311 310 309 309 309 309 309 309 310 309 307 305 305 305 305 304 304 305 306 307 307 307 307 308 307 308 308 308 308 308 309 308 308 308 308 308 308 308 308 308
329 330 330 329 329 329 328 327 327 327 327 326 327 327 327 327 327 327 328 328 328 328 329 329 329 329 330 330 330 331 330 330 330 329 329 328 328 329 327 326 326 325 325 320 313 310 310 309 310 310 309 310 310 310 310 309 306 305 305 305 305 304 304 306 307 307 308 308 308 308 308 308 309 309 310 310 310 309 309 308 308 308 308 308 307
329 329 329 329 328 328 328 327 327 326 326 326 326 326 326 326 325 325 326 326 325 326 327 327 326 327 329 329 329 329 329 330 330 329 329 328 329 329 326 324 324 324 322 317 310 310 310 309 310 310 310 310 310 310 311 310 308 306 305 306 306 306 306 308 309 310 310 311 311 310 310 310 310 311 311 311 311 311 310 310 309 308 308 308 307
328 328 328 328 328 328 327 326 326 325 325 326 326 325 325 325 324 324 324 324 324 324 324 325 325 325 327 328 328 328 329 329 329 329 328 328 329 328 325 324 324 322 321 316 310 310 310 309 310 311 310 310 311 311 311 310 309 308 308 307 306 307 309 310 310 311 311 312 312 312 312 312 312 311 311 312 311 311 311 310 310 309 309 308 307
326 326 326 326 326 326 325 324 324 323 324 324 324 322 323 324 323 323 323 323 323 322 322 324 325 325 326 327 328 328 328 328 328 328 328 328 328 328 327 326 323 321 321 320 314 310 310 310 310 311 311 311 311 311 311 310 308 308 309 308 308 310 310 310 311 311 311 311 312 312 313 313 313 312 312 312 311 311 311 311 311 310 309 308 308
325 324 324 325 325 324 323 322 322 322 322 322 322 321 322 323 323 322 322 322 322 322 324 324 324 324 325 327 328 328 328 328 328 328 327 327 327 328 327 325 321 320 322 322 316 312 310 310 310 311 311 311 311 311 310 309 309 310 310 309 309 310 311 311 311 311 311 311 311 311 312 313 313 313 313 313 313 312 312 312 311 311 310 309 308
324 323 323 323 323 322 321 320 320 321 321 320 320 321 321 322 323 322 322 322 322 323 323 323 324 324 325 326 327 327 327 327 327 327 326 326 326 326 326 324 322 322 323 321 317 313 311 310 311 311 311 311 311 311 311 311 311 311 311 309 309 310 310 310 311 311 311 311 311 311 312 313 312 313 313 313 313 313 312 313 313 312 312 310 309
321 321 321 320 320 319 318 318 319 319 319 319 320 320 320 321 322 322 321 321 322 322 322 321 323 323 325 327 327 327 326 326 326 326 325 325 325 325 324 323 322 321 320 318 316 313 312 311 311 311 311 311 312 312 311 311 311 311 311 310 310 310 309 309 310 311 312 312 311 311 312 313 312 312 313 313 313 313 313 313 313 313 312 311 310
319 319 319 318 317 316 316 316 316 316 317 318 319 319 319 320 320 321 320 320 320 321 321 322 322 322 325 326 326 324 322 322 323 323 323 323 324 322 321 321 320 319 318 318 316 315 315 315 314 314 314 313 313 312 312 312 311 312 311 311 310 310 310 310 310 312 313 313 312 312 313 313 313 312 312 313 313 313 313 313 313 313 312 311 310
319 318 318 317 316 316 316 316 316 315 315 316 317 318 318 319 319 320 319 319 319 320 321 322 322 323 324 326 326 324 322 320 320 320 321 321 321 321 320 319 319 319 319 319 317 317 316 316 316 315 316 316 315 314 314 314 313 314 314 313 313 312 312 311 312 313 313 313 313 312 312 313 313 311 312 313 313 313 313 313 313 311 310 308 306
318 317 316 315 315 314 315 315 314 314 314 314 315 316 318 318 319 319 319 320 319 320 321 323 323 323 324 324 323 322 321 321 319 317 317 318 317 317 318 318 317 317 317 317 316 315 313 312 312 312 312 313 313 312 313 314 314 315 316 316 317 317 316 315 315 315 314 314 314 312 311 313 313 311 311 313 313 313 312 311 310 309 308 307 306
316 314 313 312 312 311 311 312 312 313 313 313 313 314 315 316 318 319 319 320 320 320 321 321 321 321 320 319 318 317 317 319 318 316 315 314 313 314 315 316 316 315 315 316 316 316 315 314 314 313 313 314 314 314 315 316 316 317 317 318 318 317 318 317 317 317 316 316 315 314 312 312 313 312 312 314 314 313 312 311 309 309 309 309 309
313 312 312 311 311 310 310 311 311 313 314 314 314 313 314 316 318 319 319 320 320 320 319 318 318 317 317 316 316 316 316 317 318 317 317 315 314 316 318 319 318 318 317 317 316 316 317 317 316 316 316 316 317 317 317 317 318 318 318 318 318 318 317 317 316 317 317 317 316 315 313 313 314 314 314 314 314 314 314 313 312 311 311 311 312
311 311 310 309 309 309 309 310 311 312 313 314 315 315 316 318 319 320 319 319 318 317 316 315 315 315 315 315 316 317 317 317 317 317 318 317 317 318 319 319 319 319 317 316 316 315 315 314 314 314 313 313 313 312 312 312 313 314 315 316 316 315 315 315 315 315 316 316 315 315 314 314 314 314 315 315 315 314 314 314 313 313 312 312 312
309 308 307 307 306 307 307 307 308 309 309 310 313 315 317 319 320 320 320 319 317 315 314 313 314 314 314 314 315 316 316 316 316 317 317 317 317 317 317 317 316 316 315 316 316 315 315 314 314 312 310 307 306 305 305 306 307 308 310 312 312 312 313 314 314 315 315 315 314 314 314 314 313 313 314 314 314 314 314 314 313 313 312 312 312
304 303 303 303 302 303 303 303 304 305 304 304 308 311 314 317 319 319 320 319 316 313 312 311 311 311 311 312 312 313 313 313 313 314 315 315 315 314 314 313 311 309 308 309 310 311 311 311 310 308 306 304 303 304 304 305 305 307 308 309 310 312 314 314 314 313 313 314 314 314 313 313 313 313 313 313 313 313 313 313 313 313 312 312 311
Wind_Speed
16 15 15 13 12 11 10 9 11 12 11 11 12 13 13 12 12 11 9 8 7 8 10 10 7 6 9 11 10 10 10 10 11 11 12 14 15 13 11 12 13 13 12 10 9 9 8 8 8 8 8 9 9 9 9 10 10 10 11 12 12 13 13 14 15 16 16 16 15 15 14 14 14 13 13 13 13 14 15 15 15 15 15 14 15
16 15 15 14 13 12 11 10 11 12 12 11 12 13 12 11 11 10 7 6 7 11 13 11 8 8 9 9 10 10 9 10 11 11 12 13 13 12 11 12 13 13 12 10 8 8 8 8 8 8 8 9 9 10 10 11 11 12 13 14 14 15 15 16 16 17 17 17 17 17 17 16 16 15 14 13 12 13 14 14 13 14 15 15 15
16 16 15 14 14 13 12 11 11 11 12 10 11 12 11 10 10 8 6 6 7 14 16 13 11 9 9 9 10 11 10 11 11 11 12 12 13 13 13 13 12 12 11 9 8 9 9 8 8 8 10 10 11 12 13 14 14 14 14 14 14 15 15 15 15 16 16 16 16 16 16 16 16 16 15 14 13 12 13 12 12 14 15 15 15
17 17 16 16 15 13 12 11 10 11 11 10 8 9 10 10 9 8 7 7 11 16 16 13 11 10 10 10 11 12 12 12 12 12 13 14 14 14 14 13 12 12 12 11 10 10 10 9 9 9 11 11 11 13 14 14 13 13 12 12 12 12 12 11 12 12 12 12 12 13 13 13 14 15 15 16 15 14 12 12 12 13 13 14 15
19 18 18 17 16 14 13 11 10 11 12 11 10 11 13 13 12 11 10 9 11 15 14 12 11 10 10 11 13 13 13 12 12 14 15 15 14 13 13 13 13 14 13 12 11 10 9 8 9 9 10 11 11 12 12 11 10 10 9 10 9 9 8 7 7 8 8 8 8 9 9 9 10 12 13 14 15 14 13 12 12 12 12 13 14
20 18 18 17 16 16 15 13 12 12 13 14 14 14 15 16 14 13 10 9 10 12 12 12 11 10 11 12 13 14 13 13 13 14 15 14 13 12 13 13 14 15 13 12 12 11 10 9 9 9 10 10 10 10 10 8 7 7 7 7 7 6 6 5 4 4 5 5 5 6 6 7 7 8 10 12 13 13 13 12 11 11 11 12 12
20 19 18 16 17 18 16 16 14 13 15 16 16 15 15 16 14 13 12 9 10 11 11 12 11 11 12 12 13 15 15 15 14 14 14 14 14 13 13 14 15 15 13 13 12 11 9 9 9 9 9 10 9 9 8 8 7 6 6 5 5 4 4 3 3 4 5 5 5 5 5 5 5 6 7 9 11 12 12 11 11 10 11 11 12
20 20 20 17 19 18 16 17 16 15 16 16 16 15 16 15 12 11 12 11 11 12 11 11 11 11 12 12 13 14 15 15 15 14 13 13 13 14 14 14 13 12 12 11 10 9 8 7 7 7 8 8 8 8 7 6 5 5 4 4 3 3 4 5 4 5 5 6 6 5 5 4 5 5 6 7 10 10 10 10 9 9 10 11 11
21 22 21 18 19 20 18 18 17 16 16 16 15 15 16 15 11 9 11 12 13 13 13 12 12 12 12 12 12 12 14 14 14 13 13 13 13 14 13 13 12 10 10 10 9 8 7 6 6 6 8 8 8 8 8 7 5 5 4 3 3 5 7 7 7 7 7 8 8 7 7 6 6 6 6 7 8 9 8 8 8 9 9 9 11
22 23 22 19 21 22 19 18 17 16 16 16 15 14 14 13 11 10 10 12 15 15 14 13 12 12 12 12 12 11 11 12 13 13 13 13 13 13 12 11 11 10 10 10 8 7 7 6 6 6 7 8 8 8 7 7 6 5 5 5 6 7 7 6 7 8 8 8 8 8 8 7 7 7 7 8 9 8 8 8 8 8 8 9 10
22 23 23 22 22 22 20 18 17 16 16 16 14 13 13 12 11 13 12 13 15 17 16 14 13 12 12 12 11 10 10 11 12 13 13 13 13 13 12 11 11 11 11 10 8 7 6 6 5 6 6 7 7 7 6 6 6 6 6 7 9 8 6 6 7 7 7 7 6 6 6 5 5 5 7 8 10 10 8 8 7 6 7 9 10
21 23 23 23 23 23 21 19 17 16 16 15 13 12 13 12 11 14 15 15 16 17 16 16 15 12 11 10 9 8 8 9 9 10 13 15 14 13 13 12 12 12 12 10 8 7 5 5 5 5 6 7 7 7 7 6 7 9 9 10 9 7 6 7 7 6 6 6 5 5 4 4 4 5 7 8 10 11 9 8 7 7 9 11 12
21 23 22 22 22 22 22 21 19 15 14 14 13 12 13 13 13 16 16 18 19 18 18 19 18 14 11 10 9 8 7 7 7 9 13 15 15 13 13 13 13 13 12 10 9 7 5 5 5 5 6 7 8 8 9 8 9 10 10 10 8 7 7 8 8 7 7 6 6 7 7 7 7 7 9 10 12 12 10 9 10 11 13 13 13
21 22 21 20 19 20 21 21 19 15 14 14 13 15 15 15 17 18 17 19 21 21 22 19 15 13 12 9 7 7 7 6 7 9 11 13 15 13 13 13 13 13 12 11 9 7 6 5 5 5 7 9 10 11 11 10 11 11 10 9 7 7 8 9 8 8 8 8 8 10 10 10 10 12 13 14 14 14 12 12 12 13 12 12 10
21 20 20 20 18 18 19 18 15 14 16 16 16 17 18 19 21 21 19 20 20 23 23 17 15 16 12 6 3 3 5 4 5 7 8 10 12 13 12 11 12 11 11 11 11 9 7 5 5 6 9 11 12 12 13 12 11 10 9 8 7 8 9 10 9 9 9 9 10 12 13 13 14 16 17 17 16 15 14 13 12 12 11 10 10
21 20 20 20 18 18 19 18 16 17 19 19 19 19 20 22 23 23 22 21 19 23 20 14 18 20 10 3 2 2 2 3 4 4 6 9 10 11 11 11 11 10 9 9 11 11 8 6 5 7 11 12 12 13 12 11 10 9 8 8 8 9 10 10 10 9 9 9 11 14 14 15 17 18 18 17 16 15 14 13 11 11 10 9 9
21 20 20 19 18 18 20 19 19 20 19 19 20 19 20 21 21 23 24 22 21 24 19 12 19 22 13 7 4 1 1 5 6 4 5 10 10 11 11 10 11 9 9 9 12 12 9 7 7 9 12 12 12 11 10 9 8 8 8 9 10 10 10 10 10 9 9 10 13 14 15 16 17 18 17 16 15 14 13 11 9 9 8 7 6
21 21 20 19 19 18 20 21 22 21 19 19 20 19 20 20 22 23 23 22 22 25 21 15 20 19 13 12 6 4 9 10 5 1 4 8 9 10 10 10 11 10 10 11 12 13 11 9 9 10 12 11 11 10 9 8 7 8 9 10 10 10 10 9 9 8 9 11 13 14 16 16 16 16 16 15 14 12 10 8 7 7 7 6 6
21 21 21 21 19 19 20 22 23 21 20 20 19 19 20 21 22 22 21 21 22 26 23 18 22 18 12 11 5 7 19 17 8 4 4 5 8 10 9 11 12 11 12 12 13 14 12 11 11 12 12 11 10 9 9 8 8 9 10 10 10 10 10 10 10 10 10 12 13 13 14 16 16 15 14 13 11 8 6 6 7 7 7 7 7
21 21 22 22 21 21 22 23 22 21 20 20 19 20 21 20 21 21 21 22 22 25 24 21 23 19 14 12 7 10 23 19 14 11 5 3 5 7 9 12 13 13 13 13 13 15 14 13 13 13 13 11 9 8 9 9 10 11 11 10 10 10 11 11 11 11 11 12 13 12 13 14 14 14 12 11 8 7 6 7 8 7 7 7 7
22 22 23 23 22 22 22 22 21 20 20 20 20 21 21 21 22 21 21 23 22 22 24 25 26 21 15 11 8 16 19 14 15 14 8 5 5 4 8 11 12 14 15 13 14 15 14 15 15 14 12 11 9 8 9 11 11 11 10 10 10 10 11 11 12 12 11 12 12 12 12 12 12 12 11 9 8 7 7 8 8 7 7 8 8
23 24 24 22 21 21 21 21 20 20 21 21 21 21 20 20 21 21 20 22 23 23 23 25 26 21 16 14 15 19 15 9 13 14 9 7 4 5 11 11 10 13 15 15 15 16 16 16 15 14 12 11 10 9 10 12 12 11 10 9 9 9 10 11 11 11 12 12 12 12 11 11 11 10 9 9 8 8 8 8 8 8 8 8 8
25 24 22 20 20 20 19 19 20 22 22 22 22 21 19 18 20 20 20 21 22 22 23 25 25 21 17 16 18 22 18 13 17 19 13 8 5 6 11 13 12 14 16 16 17 18 18 18 16 14 12 11 11 10 12 13 12 11 10 9 9 9 10 10 11 11 11 11 11 11 11 10 10 10 9 9 9 9 9 9 8 8 8 8 9
25 24 21 20 20 20 19 19 21 23 23 22 21 21 19 18 19 20 20 20 20 20 22 24 25 22 19 17 19 23 22 17 21 23 18 15 13 9 10 13 10 11 15 17 18 19 21 20 17 14 12 12 13 13 13 14 12 12 11 10 10 10 10 10 10 10 10 11 10 10 10 10 10 10 10 9 9 9 9 9 9 9 9 9 9
25 24 22 21 20 20 20 21 22 22 23 22 21 21 20 18 19 20 20 19 19 18 20 22 23 22 21 19 19 22 20 16 20 23 19 19 19 12 11 12 8 8 13 17 18 20 21 21 18 14 13 12 13 14 14 14 13 13 12 12 11 10 10 9 9 10 10 10 10 10 10 10 9 9 9 9 9 9 9 8 8 8 9 9 8
25 24 23 21 20 20 21 22 22 21 21 21 20 20 20 19 19 21 21 20 19 18 18 20 21 20 20 19 19 21 19 15 18 22 21 20 21 18 14 10 7 10 12 14 19 19 18 21 20 16 13 11 11 13 15 14 14 14 13 12 12 11 10 10 10 9 10 10 10 10 10 9 9 9 9 9 9 8 8 8 8 7 7 7 7
25 24 23 22 22 20 20 21 21 20 20 20 20 20 20 19 20 21 21 20 19 17 17 19 19 19 20 18 18 20 19 16 18 22 22 21 23 26 22 11 5 7 8 10 16 17 18 21 21 18 15 12 10 12 15 15 14 14 13 12 12 12 11 11 11 10 10 10 10 10 9 9 9 8 8 8 8 8 7 7 7 7 6 6 6
24 24 24 24 23 21 21 21 20 19 20 20 20 20 20 20 21 22 21 20 19 17 17 18 19 18 19 18 18 19 17 16 19 21 21 21 24 30 29 20 11 6 4 6 8 11 17 21 21 20 18 14 11 13 15 16 16 15 14 13 13 13 12 11 11 11 10 10 10 10 9 8 8 8 8 7 7 7 6 6 6 5 5 5 4
24 24 25 25 24 23 23 22 20 19 20 21 20 19 19 20 20 21 20 18 18 17 16 18 18 17 18 19 19 18 15 16 19 20 20 21 25 30 31 28 21 11 4 5 6 8 16 20 20 21 21 17 13 14 16 16 17 16 14 14 14 13 13 12 11 11 10 10 9 9 9 8 8 7 7 6 6 5 5 4 4 4 3 3 3
25 25 24 24 25 25 24 23 22 20 20 20 19 19 19 19 18 18 17 17 16 16 16 17 17 17 18 19 18 17 16 16 18 18 18 21 25 31 31 28 26 19 12 8 6 10 17 20 20 21 21 20 16 16 18 17 17 17 15 15 15 14 14 12 11 10 9 9 8 8 8 8 7 6 6 5 4 4 3 3 3 2 2 1 1
27 26 25 26 26 25 24 23 22 20 19 19 20 19 19 19 17 16 15 15 14 15 16 16 17 16 17 18 19 17 16 16 17 17 17 20 24 29 30 26 24 23 21 15 6 10 21 23 22 21 20 20 18 17 18 18 17 17 16 16 16 15 15 13 12 10 9 9 8 8 8 7 6 5 5 4 3 3 2 2 1 1 0 0 1
29 27 27 27 26 25 24 23 21 21 20 20 20 19 19 18 17 16 15 14 13 14 16 16 16 16 16 17 18 17 16 16 18 17 16 19 23 27 29 27 24 21 21 19 10 9 20 26 24 22 20 19 19 18 19 19 18 18 17 16 17 16 16 14 13 11 10 9 9 8 7 7 6 5 5 4 3 3 2 2 2 2 2 2 3
29 29 28 27 26 25 24 22 21 21 21 20 19 19 19 18 17 16 15 14 13 14 16 15 16 17 16 17 17 17 16 16 18 19 17 17 20 25 27 25 24 23 20 19 14 10 15 22 23 23 22 20 20 19 20 20 20 20 18 17 18 18 17 16 14 13 12 11 11 10 9 8 7 7 7 6 6 5 5 5 5 5 5 5 5
28 29 29 27 26 25 24 23 21 21 20 19 19 19 20 18 17 17 17 16 14 15 16 15 16 16 16 17 17 16 17 16 16 18 19 18 18 22 26 23 22 23 21 20 17 14 15 19 21 22 22 22 21 20 21 22 21 20 20 19 20 20 19 18 16 15 14 14 13 12 11 11 10 10 10 10 9 9 9 8 8 8 8 8 8
28 28 28 28 26 25 24 23 21 20 19 19 19 18 19 18 17 17 18 17 16 15 16 16 15 15 16 17 17 16 17 16 15 17 19 19 19 21 24 22 21 22 20 19 20 19 18 19 21 23 23 24 22 20 21 22 21 20 21 20 21 21 21 20 19 17 17 16 15 15 14 14 13 14 14 14 13 13 13 12 12 12 12 12 12
29 27 27 26 26 25 25 23 21 20 19 18 18 17 17 16 16 16 17 17 16 16 17 16 15 15 15 16 16 16 16 16 15 16 18 18 19 21 22 23 23 21 18 19 23 25 22 21 22 25 25 25 23 20 20 22 22 20 20 20 21 22 22 22 21 20 19 19 19 18 18 17 17 17 17 17 17 17 17 17 16 16 16 15 15
29 28 27 26 26 26 25 22 20 20 19 17 16 16 16 16 15 15 16 16 15 15 17 16 14 14 14 14 16 16 16 16 15 16 18 18 17 18 21 23 21 17 17 19 24 27 25 25 24 23 23 24 23 21 20 21 22 21 21 21 21 22 23 23 23 22 21 21 22 22 21 21 20 20 20 20 21 21 21 21 20 19 19 18 18
28 28 27 26 26 27 25 22 21 20 18 17 17 16 15 14 13 13 14 15 15 15 16 15 14 13 12 12 14 15 16 16 15 15 17 17 17 15 16 19 16 11 14 20 24 25 26 27 25 23 23 24 23 21 20 20 21 22 23 23 23 23 24 24 24 24 23 23 23 23 22 22 22 23 24 24 24 25 25 24 24 23 22 21 20
28 27 27 27 27 27 25 23 21 19 18 19 18 15 13 13 13 14 14 15 15 15 14 14 14 12 10 10 12 14 15 15 15 15 15 16 16 11 9 15 17 11 11 17 22 23 24 25 24 23 24 25 24 21 20 20 21 22 23 24 25 26 27 27 26 25 24 24 24 22 22 23 25 25 26 27 28 29 28 28 27 26 25 24 23
27 25 26 27 28 26 24 22 21 19 19 19 17 15 13 13 13 14 14 15 15 14 13 13 13 11 8 9 11 12 13 13 13 13 14 15 16 11 7 15 21 16 12 13 18 23 23 22 23 23 22 24 24 21 18 20 23 23 25 27 27 27 27 27 27 26 26 27 26 25 26 27 28 28 29 30 32 32 32 32 31 30 28 27 26
26 24 25 26 26 25 23 22 20 19 19 18 16 15 14 14 14 14 13 14 15 16 15 15 12 8 7 8 10 11 11 11 11 11 12 13 15 14 12 16 21 19 15 14 18 23 23 21 23 22 20 22 24 21 18 21 25 26 27 29 29 29 28 28 30 29 28 29 29 29 30 30 30 31 31 33 33 33 34 34 34 33 31 30 28
26 25 25 25 24 24 24 23 21 20 19 18 16 15 14 13 13 13 12 13 16 17 16 14 12 8 7 8 9 10 10 9 10 10 10 10 11 12 13 17 19 18 16 15 18 23 23 22 22 21 20 21 25 25 24 26 28 28 27 28 30 31 28 26 29 31 31 31 32 33 32 32 33 34 34 35 35 35 35 36 36 35 34 32 30
29 28 27 27 26 25 24 23 22 20 19 18 16 14 14 13 12 11 11 12 14 17 15 14 13 10 9 9 10 9 8 7 7 8 8 8 9 9 10 13 13 11 13 14 18 20 21 21 20 20 21 23 26 28 28 27 27 28 29 29 30 30 24 21 23 27 29 30 32 34 35 34 35 37 37 37 36 36 37 37 37 37 37 35 32
33 31 29 28 27 25 24 22 20 19 18 17 15 14 13 12 11 10 10 10 12 14 14 14 14 12 12 12 12 11 9 7 7 8 9 9 9 9 9 10 8 5 3 8 13 14 14 15 15 15 17 20 22 23 24 25 24 25 27 27 28 28 25 23 24 27 30 28 28 32 35 35 36 38 39 38 37 39 39 38 39 40 39 37 34
34 32 30 27 25 23 21 19 18 17 16 15 14 13 12 12 11 11 10 10 11 13 14 15 16 15 13 13 13 12 10 9 8 9 10 11 11 10 10 9 8 8 7 6 7 8 6 5 6 7 7 9 10 9 11 14 15 15 16 18 21 24 25 26 28 31 31 26 22 25 29 32 33 34 37 38 38 40 41 41 42 41 39 36 33
33 31 29 26 23 21 18 17 16 15 14 13 12 13 13 12 12 13 13 12 13 14 16 16 16 14 13 13 12 10 9 8 8 9 10 11 10 10 9 7 6 6 6 5 5 4 3 2 2 2 3 4 5 3 4 6 7 7 8 10 12 15 18 20 21 24 25 23 21 19 21 26 28 28 32 35 35 37 38 38 38 36 34 32 30
31 30 28 25 23 21 19 18 17 15 13 12 11 12 12 11 12 15 17 17 16 17 17 17 16 15 14 13 12 11 10 9 8 9 10 10 11 12 11 10 8 7 6 5 4 3 1 1 0 0 1 2 4 4 4 5 6 6 7 8 9 9 11 12 11 12 15 17 18 16 17 20 21 22 27 28 27 30 32 31 31 29 27 29 29
30 29 27 25 23 22 20 19 19 18 16 13 11 12 13 13 14 17 20 20 20 21 20 19 19 17 15 14 13 12 12 12 10 9 9 9 10 11 11 10 9 8 8 7 6 4 3 3 3 4 4 3 4 5 6 6 7 8 9 10 11 11 12 12 11 10 9 9 9 10 14 17 16 18 22 22 22 25 25 26 27 24 22 25 26
30 28 26 25 23 22 21 19 19 20 19 16 13 14 16 18 18 20 22 23 24 24 23 22 21 19 17 14 13 13 12 12 10 9 7 6 7 8 7 6 6 6 6 6 5 4 4 4 5 6 6 6 7 7 8 8 8 9 10 11 12 13 13 12 12 13 13 13 13 14 14 14 14 17 20 20 21 23 21 23 25 23 22 25 26
30 28 27 26 24 22 22 21 20 20 19 18 16 16 18 20 21 22 23 24 25 25 23 22 20 19 18 15 13 13 12 11 9 7 6 5 5 6 5 4 3 4 4 4 4 4 4 5 5 6 7 8 8 8 9 9 10 10 10 11 11 12 12 10 11 14 16 17 17 16 15 15 17 20 19 17 18 21 22 23 24 24 25 27 27
31 29 28 28 27 25 23 22 20 20 20 18 17 18 18 19 20 22 23 24 25 23 22 20 19 17 16 15 14 13 12 11 8 7 6 4 4 4 4 4 5 6 7 8 9 9 9 10 10 10 10 10 9 8 8 9 9 10 10 10 9 11 12 13 13 13 11 10 12 12 13 15 17 18 17 13 11 14 18 20 21 22 25 26 26
Wind_Direction
173 175 177 175 173 165 158 159 163 167 166 165 170 171 168 163 161 162 165 172 178 184 172 163 164 162 161 159 153 145 136 129 132 135 133 139 144 144 140 127 120 119 121 129 134 134 130 130 132 136 138 134 127 119 112 107 105 105 104 102 99 96 92 89 86 84 83 81 80 79 79 80 82 84 84 82 80 82 87 87 82 77 77 73 68
175 177 177 171 168 164 160 157 155 160 162 160 161 165 167 162 162 168 183 204 203 194 189 178 170 169 171 172 168 162 150 139 137 135 132 137 143 141 132 120 116 117 123 132 134 132 132 138 143 143 137 127 120 118 117 115 112 107 103 101 98 96 93 91 89 86 84 82 80 78 77 76 76 79 81 82 81 82 86 86 83 81 80 78 72
174 176 176 171 169 167 164 162 162 164 162 158 155 157 160 159 165 174 191 211 198 190 191 183 174 172 171 174 174 170 158 148 143 137 134 137 138 134 126 120 120 122 127 134 134 134 137 138 136 129 121 116 117 118 117 116 112 107 103 100 97 95 94 94 93 91 89 86 85 82 78 76 74 74 75 77 77 79 85 87 87 86 82 81 77
172 172 173 172 172 172 172 171 172 177 172 168 165 166 169 170 177 176 173 178 177 183 187 183 179 175 173 178 179 174 165 158 150 142 141 141 137 132 128 127 127 127 128 128 124 123 128 130 127 122 120 121 123 124 123 120 114 110 106 101 98 97 94 90 88 89 89 87 86 84 79 76 73 73 74 73 73 71 77 86 89 89 86 85 81
172 172 175 178 181 181 184 182 177 183 183 181 176 172 173 174 175 172 171 173 168 174 180 178 180 178 179 181 178 177 172 166 157 148 147 144 139 135 134 136 135 133 130 124 119 120 123 125 127 128 129 130 132 131 128 122 116 113 108 103 102 100 92 83 80 85 89 86 83 83 80 78 75 75 77 75 74 70 68 75 84 89 89 87 85
175 179 182 185 188 187 190 188 182 181 181 182 175 167 171 174 174 174 176 181 169 165 172 174 176 179 180 176 176 180 177 171 164 153 151 148 143 139 137 140 142 141 140 137 137 139 138 136 137 138 138 138 139 141 137 130 127 122 114 107 101 96 94 87 82 86 88 82 88 98 89 84 82 78 82 82 81 78 72 69 73 84 87 85 85
179 184 187 186 184 182 182 183 181 179 178 182 179 172 175 177 176 176 173 175 171 164 171 176 176 179 178 175 177 179 176 174 168 159 156 153 149 145 141 143 145 147 147 145 145 146 148 148 146 146 145 147 149 152 153 147 143 136 126 117 105 95 101 112 114 89 76 74 87 112 108 100 102 93 94 92 88 86 83 76 71 78 87 87 85
183 184 185 184 180 178 180 183 184 182 183 189 187 182 184 182 178 181 177 170 170 170 174 177 176 174 174 177 181 178 174 174 170 164 159 154 153 153 153 153 153 151 150 148 148 150 156 156 155 161 164 164 162 164 168 166 158 147 134 115 107 100 96 104 108 87 77 83 88 104 113 120 130 126 120 109 96 94 94 89 80 81 89 90 89
187 184 183 182 181 180 180 184 186 185 189 194 191 186 191 190 174 175 188 176 169 171 171 175 174 167 168 175 179 177 174 171 172 172 163 156 159 161 162 164 165 164 159 154 152 152 152 151 151 165 180 187 187 184 183 185 185 175 165 138 123 115 104 98 96 93 96 101 99 105 110 110 113 122 134 130 111 101 102 98 89 87 90 90 90
192 187 184 182 184 183 180 181 186 185 188 194 191 183 189 193 168 160 183 176 168 168 166 170 168 159 161 168 170 170 169 167 171 176 173 166 167 168 167 171 172 171 167 161 158 158 152 148 148 152 170 187 194 194 190 193 195 183 172 152 130 119 112 107 108 111 114 114 113 110 108 108 103 106 122 136 132 117 109 104 94 89 94 98 95
193 191 188 186 186 186 182 181 183 182 184 190 188 179 183 190 171 163 175 174 168 165 160 161 159 155 155 160 167 163 160 164 170 177 179 179 179 177 177 178 174 168 166 165 165 169 161 151 153 150 154 167 175 179 178 181 178 166 154 139 128 124 118 115 119 124 127 126 126 121 117 120 120 117 115 126 138 131 118 108 97 87 94 102 100
193 192 191 190 188 186 184 180 180 179 183 187 184 181 183 187 175 169 175 169 162 161 160 156 144 137 138 144 158 158 156 162 171 180 184 190 192 187 186 179 171 167 163 168 172 171 163 149 151 158 156 158 159 157 156 154 152 148 141 131 128 130 123 114 116 121 122 114 117 123 118 118 127 141 131 124 135 135 123 109 100 97 102 101 96
194 192 192 190 186 184 183 182 179 178 185 187 184 182 180 183 178 174 176 165 156 157 160 150 131 123 125 124 133 144 156 164 170 183 189 196 197 192 190 177 168 170 166 168 173 166 159 150 150 160 158 156 152 146 142 137 134 133 130 130 133 133 122 116 116 111 105 98 99 99 92 94 101 120 133 130 133 133 121 107 104 104 101 94 86
196 194 193 188 185 185 186 186 179 175 188 190 185 181 176 180 178 173 175 166 160 161 160 151 133 130 130 118 114 128 147 164 175 184 189 196 196 197 200 183 169 173 173 172 170 159 154 147 144 153 154 154 150 142 138 133 130 132 135 136 135 132 122 116 114 107 104 100 95 92 89 95 100 110 124 128 127 125 114 107 106 103 97 91 88
197 195 195 189 186 188 187 185 176 178 194 190 184 183 174 174 177 174 172 167 164 165 167 164 148 136 127 124 120 117 132 149 164 174 183 189 189 194 202 187 175 177 181 178 166 156 155 146 140 153 155 153 150 145 143 141 141 146 149 143 133 126 119 114 111 107 108 102 94 98 98 101 107 112 119 122 121 118 109 104 101 101 100 98 98
200 195 193 188 185 188 186 180 176 189 201 190 183 186 178 174 178 177 173 167 166 169 173 177 165 149 129 106 98 120 151 131 123 134 168 175 174 183 189 183 182 184 178 172 165 164 165 153 143 156 157 153 153 153 151 153 156 157 151 143 132 123 118 115 112 110 109 100 96 104 106 106 111 116 119 120 118 114 108 105 105 108 109 105 103
203 195 189 187 185 186 187 182 181 192 201 195 187 188 185 183 183 181 179 175 173 174 175 185 182 167 150 142 130 174 187 132 131 122 162 177 172 176 183 180 183 183 171 167 171 175 175 167 160 162 160 158 159 160 161 162 162 159 149 139 131 124 121 117 115 114 110 102 102 110 114 114 117 120 121 119 115 113 110 110 113 112 109 110 114
203 196 189 190 190 188 189 187 186 188 196 201 192 184 186 189 187 184 185 185 178 176 180 190 189 180 169 167 164 178 160 142 146 121 139 173 177 176 183 182 183 183 175 174 178 181 181 178 174 169 166 166 167 166 167 168 164 159 148 140 134 128 126 122 119 118 112 107 107 115 122 123 124 123 121 120 119 119 117 114 112 108 106 107 110
200 198 195 195 195 193 194 193 190 188 193 200 195 189 190 191 189 188 189 189 183 179 187 194 191 197 204 194 201 185 166 157 163 162 132 166 180 182 186 183 181 178 176 178 181 185 186 184 180 176 176 177 176 177 175 171 165 159 151 146 142 135 131 126 121 119 115 114 112 116 125 130 132 131 128 130 131 128 124 120 113 110 110 106 103
198 199 200 200 200 199 199 198 194 190 192 196 198 197 195 190 189 192 191 191 192 188 191 195 192 198 206 207 226 184 170 168 167 158 138 139 169 184 186 181 180 175 173 179 184 186 188 187 185 181 183 184 183 187 184 175 166 160 156 152 148 143 139 135 133 130 126 126 123 120 127 134 138 140 142 144 144 139 129 122 117 113 112 107 103
198 199 200 202 205 205 205 203 198 194 192 194 198 198 197 194 189 191 192 194 200 199 196 193 191 192 192 193 182 162 164 171 167 157 146 151 161 178 175 175 184 183 178 179 183 186 187 188 188 186 189 189 185 190 186 175 167 161 157 156 155 153 151 147 144 141 136 134 134 131 135 141 144 147 150 149 144 136 126 119 116 112 110 107 102
196 198 200 204 207 209 209 206 199 194 192 191 194 196 199 200 195 193 194 197 202 204 201 196 194 195 191 183 163 154 156 160 165 163 155 160 165 165 168 172 184 185 181 183 185 186 189 192 192 192 197 197 192 196 188 175 168 163 159 160 164 164 161 156 150 145 141 137 137 137 139 142 144 144 144 142 136 130 124 119 116 112 109 107 105
196 198 203 207 209 210 210 206 198 193 193 193 194 198 199 199 199 197 196 200 203 205 206 202 198 198 196 191 177 170 171 173 173 171 163 159 150 153 170 177 182 183 182 188 190 189 192 196 196 195 201 206 205 204 193 179 169 166 164 163 165 167 164 160 154 149 144 140 137 135 136 137 138 136 131 128 124 122 120 118 115 112 109 107 105
196 199 204 208 209 210 208 203 197 194 196 198 199 202 202 197 198 199 197 200 202 202 205 203 200 201 198 197 194 185 183 185 182 178 175 168 157 152 170 175 179 185 187 192 194 193 194 196 196 197 203 207 209 209 197 184 174 169 167 165 165 166 165 161 157 154 148 143 140 137 138 138 136 134 130 127 124 120 118 118 117 114 110 106 102
199 201 204 207 208 207 203 197 193 193 197 201 200 199 202 200 198 199 197 198 198 197 201 200 201 203 198 197 200 195 192 197 193 186 182 170 158 154 168 175 173 169 180 187 187 190 196 197 197 198 202 203 207 209 199 186 178 173 169 167 168 168 167 164 160 158 152 147 148 147 146 144 141 141 140 139 136 130 125 124 122 118 114 112 108
203 204 204 204 201 200 198 194 191 195 199 199 197 198 201 200 198 199 199 199 199 197 200 200 199 202 199 197 202 201 199 203 199 192 186 176 165 158 159 170 170 158 164 175 178 183 193 199 200 200 201 204 206 205 199 190 182 176 175 173 173 173 171 167 162 158 154 151 151 149 148 147 145 145 143 142 140 136 131 126 123 120 117 114 114
207 206 204 197 191 189 191 189 189 197 200 195 194 197 197 195 197 201 201 200 200 201 201 201 200 201 201 199 199 201 202 204 203 199 196 190 178 168 160 155 159 165 166 168 176 184 190 195 199 202 203 205 206 204 201 196 186 180 181 181 178 176 174 171 165 160 155 150 147 145 144 144 142 142 142 142 139 135 130 126 123 120 117 113 111
207 205 198 189 184 182 183 184 185 191 192 189 189 190 190 192 196 199 200 200 202 203 201 201 204 205 204 200 196 198 200 202 201 201 202 200 189 176 169 165 162 164 175 174 181 192 191 190 195 203 208 206 204 205 204 200 191 186 187 187 185 179 176 174 168 162 155 148 143 142 142 142 143 143 143 143 141 137 132 126 122 115 110 105 99
202 196 190 185 182 180 179 180 182 184 185 186 187 186 186 191 195 198 200 201 202 203 202 201 203 205 203 198 198 198 198 198 198 201 205 204 193 183 179 177 171 161 161 189 198 193 190 193 197 202 207 209 206 203 204 204 197 192 190 190 189 183 179 177 170 162 154 146 142 142 143 142 144 145 146 148 145 141 135 125 119 108 99 90 82
192 186 185 184 180 178 178 179 179 181 184 187 188 186 187 189 193 197 198 198 200 201 203 200 199 202 200 199 202 203 202 201 199 200 205 204 196 189 187 184 178 172 168 175 199 196 190 196 202 204 205 206 209 207 204 205 202 197 194 193 192 188 183 179 173 166 156 150 148 146 145 142 142 145 145 148 145 139 134 123 117 107 96 80 55
184 179 181 182 179 178 179 179 179 182 184 186 186 185 186 188 191 194 196 197 198 198 200 200 198 200 201 202 205 205 207 208 201 198 202 204 200 195 193 189 186 185 178 171 179 200 197 200 205 209 208 204 206 208 204 204 206 203 198 196 195 192 189 184 178 174 166 164 164 159 155 151 150 153 151 153 149 142 142 138 141 149 149 291 322
181 177 178 179 178 179 178 178 179 180 182 182 183 184 184 185 189 193 194 196 199 198 198 199 201 204 206 207 208 207 208 208 202 198 200 203 204 202 197 192 194 198 188 179 176 189 199 205 206 209 211 204 201 203 203 204 207 207 204 200 199 199 196 193 188 185 183 185 185 182 180 177 177 181 186 191 193 195 206 223 239 254 270 284 296
181 177 176 176 176 175 174 173 173 173 176 177 180 185 183 183 187 189 189 190 195 197 194 196 203 208 211 211 211 209 209 208 203 201 199 198 203 206 201 196 201 208 202 192 185 175 192 205 207 208 209 204 200 202 203 205 206 207 207 204 204 205 204 202 201 199 199 203 205 206 207 208 211 217 223 228 232 236 240 249 259 267 275 282 288
181 176 174 173 172 172 170 169 170 171 173 174 178 182 183 184 186 187 187 189 193 196 196 200 205 210 214 213 212 212 212 213 210 209 206 199 198 202 201 200 205 209 209 206 195 178 183 200 206 207 207 204 202 203 205 207 208 208 208 207 207 210 211 212 212 212 213 216 219 222 225 229 233 237 242 245 248 252 254 257 263 267 271 275 277
176 172 170 170 172 172 170 170 171 170 171 174 176 178 180 181 183 186 191 193 195 197 200 204 206 211 215 213 213 213 212 214 215 215 214 207 204 205 203 205 209 209 215 218 207 191 184 192 203 206 204 203 205 206 207 210 212 211 211 212 212 214 216 218 220 223 226 228 231 234 238 243 248 251 253 255 255 257 258 260 263 266 268 270 270
171 167 166 170 173 171 169 168 169 168 170 174 176 177 178 179 180 183 188 191 194 199 202 205 206 209 211 212 214 214 210 211 214 216 216 213 210 209 207 209 211 213 224 228 215 203 190 187 200 208 206 204 205 208 209 210 214 216 217 217 218 220 221 223 226 230 233 238 241 244 248 254 257 257 256 256 257 257 257 259 261 263 266 268 268
167 162 164 169 171 170 167 165 165 167 169 171 173 175 176 177 181 185 186 186 189 195 199 200 203 206 211 214 215 215 213 213 214 216 217 216 213 212 211 211 208 212 228 227 212 205 198 194 197 203 206 206 205 209 212 213 214 216 219 222 223 225 226 228 232 234 236 240 244 247 251 255 256 255 254 255 256 257 257 257 259 261 264 266 267
164 163 168 169 167 167 166 165 166 168 169 174 177 175 175 180 183 184 185 187 189 193 195 198 202 208 214 216 216 216 214 212 215 219 219 215 214 212 207 202 201 213 225 216 204 202 203 201 198 198 203 205 206 210 215 217 214 212 217 224 227 229 230 231 234 236 237 240 242 245 248 249 249 249 251 254 255 257 257 258 258 259 262 265 266
161 161 168 170 169 169 169 168 169 169 169 174 174 168 170 181 182 176 174 177 182 188 192 195 200 204 210 213 212 213 213 213 217 221 218 213 212 213 199 191 198 218 227 210 202 202 203 200 196 198 201 203 207 213 217 218 217 216 219 222 227 230 231 234 237 238 239 241 241 242 242 244 246 248 251 254 255 257 258 258 259 259 260 262 263
153 152 158 164 166 166 166 166 166 166 165 166 166 158 153 160 167 170 171 173 175 174 173 177 184 192 202 208 208 210 214 218 222 224 222 217 211 210 202 194 199 215 237 225 208 204 203 198 197 201 202 200 204 214 219 214 214 221 225 225 230 234 235 238 241 242 242 243 244 243 242 242 245 247 250 253 254 256 257 258 258 259 259 260 261
145 145 147 152 155 155 155 154 156 158 159 159 159 155 150 148 149 151 157 165 165 159 157 163 170 178 190 199 204 209 214 219 224 225 225 222 217 212 207 199 199 213 241 241 216 206 202 197 197 199 200 200 202 207 212 214 217 225 228 226 231 239 242 243 246 247 246 247 249 249 248 247 247 249 251 253 255 256 256 256 257 258 258 258 258
140 141 142 145 148 148 146 145 145 147 148 148 149 149 151 154 152 145 141 149 157 155 153 160 167 171 178 190 198 203 209 215 219 220 218 217 215 208 202 201 206 226 247 239 214 205 200 196 196 196 196 202 208 209 213 221 228 231 230 228 232 239 242 244 251 253 250 248 249 251 252 252 252 253 254 256 258 258 257 256 257 258 259 258 257
137 139 141 142 143 143 143 142 140 139 138 139 140 142 146 152 158 155 143 141 154 160 160 160 162 164 172 180 182 180 188 197 198 201 200 193 187 184 188 199 213 240 250 225 205 201 199 197 198 198 200 208 215 217 220 226 230 231 231 231 234 237 238 241 252 259 258 253 249 249 253 255 254 255 257 258 261 261 260 260 261 260 258 257 257
136 138 139 139 139 139 141 140 138 136 135 136 136 137 140 144 150 155 149 139 142 154 166 167 162 162 169 171 166 158 152 148 153 161 159 157 161 156 150 159 162 152 174 189 186 189 196 200 201 203 209 218 225 228 231 234 236 238 238 237 237 239 238 237 243 254 262 262 254 249 253 258 258 256 257 260 262 261 262 263 263 261 259 258 257
137 137 137 138 137 136 138 138 135 135 137 139 139 138 135 134 138 141 143 142 136 142 163 171 166 165 169 167 165 162 154 145 143 145 143 140 142 139 129 128 132 131 133 142 146 150 160 175 187 195 203 217 230 240 241 240 245 251 250 248 250 250 247 245 248 255 261 266 262 252 253 260 261 258 258 261 261 261 261 261 259 257 256 256 256
136 134 134 135 133 132 134 135 134 133 136 140 144 146 139 132 132 132 132 137 137 140 155 164 161 161 164 163 161 158 156 158 159 156 151 145 140 138 140 142 147 153 160 157 142 139 137 141 170 190 198 219 243 267 262 253 261 269 264 266 272 269 263 263 268 270 269 271 271 262 259 264 265 262 263 266 267 266 265 264 263 263 261 261 261
133 131 131 131 129 127 127 129 129 123 122 132 145 152 149 140 133 130 128 130 132 136 143 149 150 150 152 151 144 136 132 133 137 144 150 152 144 133 131 137 140 139 139 138 136 136 129 103 71 50 232 260 282 295 299 293 291 293 292 294 300 297 288 286 288 285 279 277 274 265 262 268 270 269 273 278 278 276 273 274 276 276 272 269 267
127 127 126 125 125 123 122 123 122 113 108 117 135 146 148 143 135 130 128 127 125 126 127 131 134 135 135 134 129 124 120 113 109 114 126 142 145 132 120 119 118 113 106 98 89 79 63 46 31 22 14 356 342 338 335 327 315 310 307 305 306 306 307 310 310 304 293 285 281 274 269 273 277 278 281 287 288 284 282 281 281 281 277 270 267
124 123 121 120 120 121 120 120 119 113 105 104 117 134 141 141 136 130 127 124 120 118 115 116 120 120 118 117 116 116 115 108 101 102 106 120 130 121 112 109 102 94 88 82 73 59 42 29 20 11 3 357 351 346 339 333 330 324 317 317 318 316 317 317 309 303 297 290 293 293 280 280 293 292 289 290 287 282 282 282 278 274 272 269 265
121 121 120 118 116 115 115 114 115 114 106 100 107 120 131 138 137 131 127 123 118 115 112 110 111 109 107 105 104 106 104 97 93 95 94 97 101 93 78 60 42 20 6 352 329 320 323 320 319 324 332 340 343 343 339 335 337 337 331 329 328 324 322 312 297 299 300 298 303 299 284 288 301 294 287 286 282 278 278 277 273 266 265 265 263
118 118 117 114 110 108 109 107 108 111 108 104 106 110 118 128 133 132 131 126 118 113 111 108 104 102 100 97 95 93 90 84 81 79 76 69 64 56 36 22 18 7 353 337 324 316 311 308 309 312 319 329 336 342 346 341 342 347 346 342 335 327 323 315 307 306 300 304 321 314 290 291 298 290 283 283 279 277 277 273 270 268 267 265 261